Regional Weather Roundup
Issued by NWS Charleston, WV

Home | Current Version | Previous Version | Text Only | Print | Product List | Glossary Off
Versions: 1 2 3 4 5 6 7 8 9 10 11 12 13 14 15 16 17 18 19 20 21 22 23 24 25 26 27 28 29 30 31 32 33 34 35 36 37 38 39 40 41 42 43 44 45 46 47 48 49 50

120
ASUS41 KRLX 081310
RWRRLX
West Virginia Regional Weather Roundup
National Weather Service Charleston WV
800 AM EST THU DEC 08 2016

Note: "fair" indicates few or no clouds below 12,000 feet with no
significant weather and/or obstructions to visibility.

WVZ003-081400-
Northern Panhandle of West Virginia

CITY           SKY/WX    TMP DP  RH WIND       PRES   REMARKS
WHEELING       CLOUDY    30  22  72 SW9G16    30.05R
$$

WVZ009-081400-
Northwest West Virginia

CITY           SKY/WX    TMP DP  RH WIND       PRES   REMARKS
PARKERSBURG    CLOUDY    33  22  63 W9        30.15S
$$

WVZ006-081400-
Western West Virginia

CITY           SKY/WX    TMP DP  RH WIND       PRES   REMARKS
HUNTINGTON     CLOUDY    33  21  61 SW10      30.18S
$$

WVZ015-081400-
West Central West Virginia

CITY           SKY/WX    TMP DP  RH WIND       PRES   REMARKS
CHARLESTON     CLOUDY    34  25  69 SW8       30.16R
$$

WVZ022-031-081400-
North Central West Virginia

CITY           SKY/WX    TMP DP  RH WIND       PRES   REMARKS
CLARKSBURG     CLOUDY    32  23  69 SW9       30.09R
MORGANTOWN     CLOUDY    33  21  61 S7        30.07R
$$

WVZ025-035-042-045-081400-
Southern West Virginia

CITY           SKY/WX    TMP DP  RH WIND       PRES   REMARKS
BECKLEY        CLOUDY    29  19  66 W8        30.10R
LOGAN          CLOUDY    32  23  69 SW6G13    30.15S
BLUEFIELD      CLOUDY    28  20  71 W9        30.10R
LEWISBURG      PTCLDY    30  18  61 W7        30.09R
$$

WVZ047-081400-
Northern Mountains of West Virginia

CITY           SKY/WX    TMP DP  RH WIND       PRES   REMARKS
ELKINS         CLOUDY    31  20  63 W8        30.07R
$$

WVZ052-081400-
Eastern Panhandle of West Virginia

CITY           SKY/WX    TMP DP  RH WIND       PRES   REMARKS
MARTINSBURG    CLOUDY    38  26  62 SW6       30.04S
PETERSBURG     CLOUDY    30  28  91 CALM      30.07S
$$




USA.gov is the U.S. government's official web portal to all federal, state and local government web resources and services.